TimeCST,TemperatureF,Dew PointF,Humidity,Sea Level PressureIn,VisibilityMPH,Wind Direction,Wind SpeedMPH,Gust SpeedMPH,PrecipitationIn,Events,Conditions,WindDirDegrees,DateUTC
12:15 AM,17.6,14.0,86,30.24,-9999.0,WSW,6.9,-,N/A,,Unknown,240,2012-12-30 06:15:00
12:35 AM,17.6,14.0,86,30.25,-9999.0,SW,5.8,-,N/A,,Unknown,230,2012-12-30 06:35:00
12:55 AM,15.8,14.0,93,30.25,-9999.0,WSW,4.6,-,N/A,,Unknown,250,2012-12-30 06:55:00
1:15 AM,15.8,14.0,93,30.26,-9999.0,SW,4.6,-,N/A,,Unknown,230,2012-12-30 07:15:00
1:35 AM,15.8,14.0,93,30.27,-9999.0,SW,8.1,-,N/A,,Unknown,220,2012-12-30 07:35:00
1:55 AM,15.8,14.0,93,30.27,-9999.0,SW,6.9,-,N/A,,Unknown,220,2012-12-30 07:55:00
2:15 AM,15.8,14.0,93,30.29,-9999.0,SW,6.9,-,N/A,,Unknown,220,2012-12-30 08:15:00
2:35 AM,15.8,14.0,93,30.29,-9999.0,SW,6.9,-,N/A,,Unknown,220,2012-12-30 08:35:00
2:55 AM,15.8,14.0,93,30.29,-9999.0,SW,4.6,-,N/A,,Unknown,220,2012-12-30 08:55:00
3:15 AM,15.8,14.0,93,30.29,-9999.0,SSW,5.8,-,N/A,,Unknown,210,2012-12-30 09:15:00
3:35 AM,15.8,14.0,93,30.29,-9999.0,SSW,6.9,-,N/A,,Unknown,210,2012-12-30 09:35:00
3:55 AM,15.8,14.0,93,30.28,-9999.0,SSW,6.9,-,N/A,,Unknown,210,2012-12-30 09:55:00
4:15 AM,15.8,14.0,93,30.28,-9999.0,SSW,5.8,-,N/A,,Unknown,210,2012-12-30 10:15:00
4:35 AM,15.8,14.0,93,30.27,-9999.0,SSW,4.6,-,N/A,,Unknown,200,2012-12-30 10:35:00
4:55 AM,15.8,14.0,93,30.28,-9999.0,SSW,6.9,-,N/A,,Unknown,210,2012-12-30 10:55:00
5:15 AM,15.8,14.0,93,30.28,-9999.0,SSW,6.9,-,N/A,,Unknown,200,2012-12-30 11:15:00
5:35 AM,15.8,14.0,93,30.28,-9999.0,SSW,5.8,-,N/A,,Unknown,200,2012-12-30 11:35:00
5:55 AM,15.8,14.0,93,30.29,-9999.0,South,5.8,-,N/A,,Unknown,190,2012-12-30 11:55:00
6:15 AM,14.0,14.0,100,30.30,-9999.0,South,5.8,-,N/A,,Unknown,190,2012-12-30 12:15:00
6:55 AM,15.8,14.0,93,30.28,-9999.0,South,6.9,-,N/A,,Unknown,170,2012-12-30 12:55:00
7:15 AM,15.8,14.0,93,30.28,-9999.0,South,5.8,-,N/A,,Unknown,170,2012-12-30 13:15:00
7:35 AM,15.8,14.0,93,30.27,-9999.0,South,6.9,-,N/A,,Unknown,170,2012-12-30 13:35:00
7:55 AM,15.8,14.0,93,30.27,-9999.0,South,6.9,-,N/A,,Unknown,170,2012-12-30 13:55:00
8:15 AM,15.8,15.8,100,30.28,-9999.0,South,8.1,-,N/A,,Unknown,190,2012-12-30 14:15:00
8:35 AM,17.6,17.6,100,30.28,-9999.0,SSW,6.9,-,N/A,,Unknown,200,2012-12-30 14:35:00
8:55 AM,19.4,17.6,93,30.29,-9999.0,SSW,6.9,-,N/A,,Unknown,200,2012-12-30 14:55:00
9:15 AM,23.0,19.4,86,30.29,-9999.0,SSW,6.9,-,N/A,,Unknown,200,2012-12-30 15:15:00
9:35 AM,24.8,21.2,86,30.29,-9999.0,SSW,8.1,-,N/A,,Unknown,200,2012-12-30 15:35:00
9:55 AM,28.4,21.2,74,30.29,-9999.0,SSW,8.1,-,N/A,,Clear,200,2012-12-30 15:55:00
10:15 AM,30.2,23.0,75,30.29,-9999.0,SSW,6.9,-,N/A,,Clear,210,2012-12-30 16:15:00
10:35 AM,32.0,23.0,69,30.29,-9999.0,SW,8.1,-,N/A,,Clear,220,2012-12-30 16:35:00
10:55 AM,32.0,21.2,64,30.28,-9999.0,SSW,10.4,-,N/A,,Clear,210,2012-12-30 16:55:00
11:15 AM,33.8,23.0,65,30.27,-9999.0,SSW,12.7,-,N/A,,Clear,210,2012-12-30 17:15:00
11:35 AM,33.8,23.0,65,30.25,-9999.0,SSW,12.7,-,N/A,,Clear,210,2012-12-30 17:35:00
11:55 AM,35.6,23.0,60,30.23,-9999.0,SSW,11.5,-,N/A,,Clear,200,2012-12-30 17:55:00
12:15 PM,35.6,23.0,60,30.21,-9999.0,SSW,12.7,-,N/A,,Clear,200,2012-12-30 18:15:00
12:35 PM,37.4,23.0,56,30.19,10.0,SSW,12.7,17.3,N/A,,Clear,200,2012-12-30 18:35:00
12:55 PM,37.4,23.0,56,30.18,10.0,SSW,12.7,20.7,N/A,,Clear,210,2012-12-30 18:55:00
1:15 PM,37.4,23.0,56,30.18,10.0,SSW,15.0,-,N/A,,Clear,200,2012-12-30 19:15:00
1:35 PM,39.2,23.0,52,30.16,10.0,SSW,12.7,-,N/A,,Clear,200,2012-12-30 19:35:00
1:55 PM,39.2,23.0,52,30.16,10.0,SSW,10.4,-,N/A,,Clear,200,2012-12-30 19:55:00
2:15 PM,39.2,23.0,52,30.15,10.0,South,16.1,24.2,N/A,,Clear,190,2012-12-30 20:15:00
2:35 PM,39.2,23.0,52,30.13,10.0,South,13.8,23.0,N/A,,Clear,180,2012-12-30 20:35:00
2:55 PM,39.2,23.0,52,30.13,10.0,South,18.4,25.3,N/A,,Clear,180,2012-12-30 20:55:00
3:15 PM,39.2,23.0,52,30.13,10.0,South,13.8,20.7,N/A,,Clear,180,2012-12-30 21:15:00
3:35 PM,39.2,23.0,52,30.12,10.0,South,13.8,-,N/A,,Clear,170,2012-12-30 21:35:00
3:55 PM,39.2,23.0,52,30.11,10.0,South,16.1,19.6,N/A,,Clear,170,2012-12-30 21:55:00
4:15 PM,39.2,23.0,52,30.11,10.0,South,15.0,20.7,N/A,,Clear,170,2012-12-30 22:15:00
4:35 PM,37.4,23.0,56,30.09,10.0,South,15.0,-,N/A,,Clear,170,2012-12-30 22:35:00
4:55 PM,37.4,23.0,56,30.08,10.0,SSE,15.0,-,N/A,,Clear,160,2012-12-30 22:55:00
5:15 PM,37.4,23.0,56,30.07,10.0,South,15.0,-,N/A,,Clear,170,2012-12-30 23:15:00
5:35 PM,37.4,23.0,56,30.08,10.0,South,13.8,-,N/A,,Clear,170,2012-12-30 23:35:00
5:55 PM,37.4,23.0,56,30.08,10.0,South,18.4,24.2,N/A,,Clear,180,2012-12-30 23:55:00
6:15 PM,37.4,23.0,56,30.08,10.0,South,19.6,24.2,N/A,,Clear,180,2012-12-31 00:15:00
6:35 PM,37.4,23.0,56,30.08,10.0,South,18.4,24.2,N/A,,Clear,180,2012-12-31 00:35:00
6:55 PM,37.4,23.0,56,30.08,10.0,South,16.1,21.9,N/A,,Clear,180,2012-12-31 00:55:00
7:15 PM,37.4,23.0,56,30.08,10.0,South,17.3,-,N/A,,Clear,180,2012-12-31 01:15:00
7:35 PM,37.4,23.0,56,30.07,10.0,South,18.4,27.6,N/A,,Clear,180,2012-12-31 01:35:00
7:55 PM,37.4,23.0,56,30.07,10.0,South,19.6,28.8,N/A,,Clear,180,2012-12-31 01:55:00
8:15 PM,37.4,23.0,56,30.06,10.0,South,20.7,25.3,N/A,,Clear,190,2012-12-31 02:15:00
8:35 PM,37.4,23.0,56,30.06,10.0,South,19.6,25.3,N/A,,Clear,190,2012-12-31 02:35:00
8:55 PM,37.4,23.0,56,30.06,10.0,SSW,17.3,-,N/A,,Clear,200,2012-12-31 02:55:00
9:15 PM,37.4,23.0,56,30.06,10.0,South,19.6,25.3,N/A,,Clear,190,2012-12-31 03:15:00
9:35 PM,37.4,23.0,56,30.05,10.0,South,17.3,26.5,N/A,,Clear,190,2012-12-31 03:35:00
9:55 PM,37.4,23.0,56,30.06,10.0,SSW,16.1,21.9,N/A,,Clear,200,2012-12-31 03:55:00
10:15 PM,37.4,23.0,56,30.06,10.0,SSW,16.1,21.9,N/A,,Clear,200,2012-12-31 04:15:00
10:35 PM,37.4,23.0,56,30.07,10.0,SSW,16.1,21.9,N/A,,Clear,200,2012-12-31 04:35:00
10:55 PM,37.4,23.0,56,30.06,10.0,SSW,19.6,24.2,N/A,,Clear,200,2012-12-31 04:55:00
11:15 PM,35.6,23.0,60,30.06,-9999.0,SSW,13.8,23.0,N/A,,Clear,210,2012-12-31 05:15:00
11:35 PM,35.6,23.0,60,30.06,-9999.0,SSW,17.3,-,N/A,,Clear,210,2012-12-31 05:35:00
11:55 PM,35.6,23.0,60,30.06,-9999.0,SSW,12.7,-,N/A,,Clear,210,2012-12-31 05:55:00